マクノート彗星

P/2008 J3 ( McNaught )

English version
Home page
Total 6,336 html files since Dec. 4, 1995
Updated on July 20, 2008

---------------------------------------------------------------------

・ プロフィール

発見日 2008年5月10日
発見光度 18.4等
発見者 R. H. McNaught (Siding Spring)

・ 軌道要素

Epoch 2009 Mar. 30.0 TT = JDT 2454920.5
T 2009 Mar. 10.72812 TT                                 MPC
q   2.2876645            (2000.0)            P               Q
n   0.12839229     Peri.    4.38585     +0.97051198     -0.22958896
a   3.8914378      Node     9.86061     +0.20605726     +0.63203469
e   0.4121287      Incl.   25.39909     +0.12508760     +0.74014935
P   7.68

・ 星図

・ 光度変化

        m1 = 11.5 + 5 logΔ + 10.0 log r

---------------------------------------------------------------------

軌道要素はM.P.E.C. 2008-N40に掲載されたものです。
星図はステラナビゲータ Ver.8 (アストロアーツ) で作成したものです。
光度グラフはComet for Windowsで作成したものです。

---------------------------------------------------------------------

Copyright(C) 1995-2008 Seiichi Yoshida (comet@aerith.net). All rights reserved.